Home > Weather > Ebebiyín > Past weeks

Flag for Equatorial Guinea Weather for the Past 2 Weeks in Ebebiyín, Equatorial Guinea

Now
72 °F

Fog.


Feels Like: 69 °F
Forecast: 70 / 86 °F
Wind: 5 mph from Southwest

Location: Yaounde Airport

Current Time: Feb 12, 2016 at 6:46:47 AM

Latest Report: Feb 12, 2016 at 5:00 AM


Visibility: 2 mi

Pressure: 29.98 "Hg (28.08 "Hg at 564m altitude)

Humidity: 88%

Dew point: 68 °F

Location of EbebiyínLocation

Historic Weather in Ebebiyín — Graph

°F

Ebebiyín Temperature Yesterday

Maximum temperature yesterday: 91 °F (at 3:00 PM)
Minimum temperature yesterday: 73 °F (at 7:00 AM)
Average temperature yesterday: 81 °F

High & Low Weather Summary for the Past Weeks

 TemperatureHumidityPressure
High93 °F (Feb 5, 3:00 PM)100% (Feb 1, 6:00 AM)30.12 "Hg (Feb 1, 6:00 AM)
Low57 °F (Jan 30, 6:00 AM)24% (Jan 29, 11:00 AM)29.89 "Hg (Feb 2, 3:00 PM)
Average77 °F69%30.01 "Hg
* Reported Jan 28 5:00 AM — Feb 12 5:00 AM, Ebebiyín, Weather by CustomWeather, © 2016

Note: Actual official high and low records may vary slightly from our data, if they occured in-between our weather recording intervals... More about our weather records

Advertising

Ebebiyín Weather History for the Previous 24 Hours

 ConditionsComfort  
Time TempWeatherWind HumidityBarometerVisibility
5:00 AM
Fri, Feb 12
72 °FFog.5 mph88%29.98 "Hg2 mi
4:00 AM72 °FPassing clouds.3 mph94%29.98 "Hg2 mi
2:00 AM73 °FFog.6 mph94%29.98 "Hg1 mi
1:00 AM73 °FFog.5 mph94%29.98 "Hg1 mi
12:00 AM75 °FFog.5 mph89%30.01 "Hg1 mi
11:00 PM
Thu, Feb 11
75 °FFog.5 mph89%30.01 "Hg1 mi
10:00 PM77 °FFog.2 mph83%30.01 "Hg1 mi
9:00 PM79 °FHaze.2 mph74%30.01 "Hg1 mi
8:00 PM81 °FHaze.2 mph70%29.98 "Hg1 mi
7:00 PM81 °FHaze.3 mph62%29.95 "Hg1 mi
6:00 PM86 °FHaze.2 mph43%29.92 "Hg2 mi
5:00 PM90 °FHaze.2 mph33%29.89 "Hg2 mi
4:00 PM91 °FHaze.2 mph32%29.92 "Hg2 mi
3:00 PM91 °FHaze.3 mph32%29.92 "Hg2 mi
2:00 PM90 °FHaze.3 mph36%29.95 "Hg2 mi
1:00 PM88 °FHaze.6 mph38%29.98 "Hg2 mi
12:00 PM86 °FHaze.9 mph38%30.01 "Hg2 mi
11:00 AM84 °FHaze.9 mph40%30.04 "Hg2 mi
10:00 AM81 °FHaze.2 mph62%30.04 "Hg1 mi
9:00 AM77 °FFog.No wind83%30.04 "Hg1 mi
8:00 AM73 °FFog.No wind89%30.04 "Hg1 mi
7:00 AM73 °FFog.2 mph89%30.04 "Hg1 mi
6:00 AM75 °FFog.3 mph83%30.01 "Hg2 mi
Weather by CustomWeather, © 2016

See weather overviewHow to use our weather pages